Location: Le Hiès Ruisseau
(43.3000°N, 0.4500°W)
Time: 07:40:31
(UTC+00:00)

YAOGAN 1 - Pass Details

Date: 28 January 2023
Orbit: 616 x 618 km, 97.8° (Epoch: 26 March)

Event Time Altitude Azimuth Distance (km) Brightness Sun altitude
Rises 18:02:27 0° 139° (SE) 2,880 5.7 -10.2°
Reaches altitude 10° 18:04:50 10° 129° (SE) 1,980 4.8 -10.6°
Maximum altitude 18:08:34 29° 68° (ENE) 1,132 3.3 -11.2°
Drops below altitude 10° 18:12:19 10° 8° (N) 1,994 4.9 -11.9°
Sets 18:14:43 0° 358° (N) 2,905 5.9 -12.3°
